[[{"header":{"parameterUnit":"m.s-1","parameterCategory":1,"la1":30.2991,"la2":30.254,"lo1":-89.0895,"lo2":-89.0444,"dy":0.0017,"dx":0.0017,"nx":28,"ny":28,"refTime":"2024-04-15T09:00:00:Z","depth":0,"parameterNumber":2,"parameterNumberName":"U-component_of_WINDS"},"data":[0,0,0,0,0,0,0,0,0,0,0,0,0,0,0,0,0,0,0,0,0,0,0,0,0,0,0,0,0,0,0,0,0,0,0,0,0,0,0,0,0,0,0,0,0,0,0,0,0,0,0,0,0,0,0,0,0,0,-4.3842,-4.3842,0,-4.3836,-4.3836,-4.3836,-4.3756,-4.3754,-4.3752,-4.3751,-4.3744,-4.3746,-4.3747,0,0,0,0,0,0,0,0,0,0,0,0,0,-4.3788,-4.3789,-4.3842,-4.3842,-4.3842,-4.3836,-4.3836,-4.3836,-4.3757,-4.3754,-4.3752,-4.375,-4.3744,-4.3746,-4.3748,0,0,0,0,0,0,0,0,0,0,0,0,0,-4.3799,-4.379,-4.3842,-4.3802,-4.3799,-4.3836,-4.3836,-4.3836,-4.3757,-4.3754,-4.3751,-4.3749,-4.3743,-4.3745,-4.3748,-4.3823,0,0,-4.3756,-4.3757,0,0,0,0,0,0,0,0,-4.3799,-4.3801,-4.3808,-4.3805,-4.3801,-4.3794,-4.3814,-4.3831,-4.3758,-4.3773,-4.3751,-4.3747,-4.3763,-4.3764,-4.3769,-4.3823,-4.3823,-4.3756,-4.3757,-4.3758,-4.3759,0,0,0,0,0,0,0,-4.3798,-4.3801,-4.384,-4.3808,-4.3804,-4.3785,-4.3783,-4.3817,-4.3785,-4.3771,-4.3766,-4.3766,-4.3761,-4.3767,-4.3768,-4.3823,-4.3756,-4.3758,-4.3759,-4.376,-4.3937,-4.394,0,0,0,0,0,0,-4.3803,-4.3801,-4.384,-4.384,-4.3793,-4.3788,-4.3786,-4.3799,-4.3784,-4.3779,-4.3769,-4.3762,-4.3764,-4.3765,-4.3768,-4.3853,-4.3758,-4.3761,-4.3762,-4.3934,-4.3938,-4.3941,0,0,0,0,0,0,-4.3802,-4.3807,-4.384,-4.3819,-4.3822,-4.3792,-4.3807,-4.3801,-4.3807,-4.3782,-4.3776,-4.3781,-4.3762,-4.3764,-4.381,-4.3852,-4.3762,-4.3764,-4.393,-4.3935,-4.3939,-4.4026,0,0,0,0,0,0,-4.3801,-4.3807,-4.3835,-4.382,-4.3823,-4.3882,-4.381,-4.3803,-4.3811,-4.3803,-4.3792,-4.3787,-4.376,-4.3806,-4.3812,-4.3854,-4.3766,-4.3926,-4.3932,-4.3938,-4.4019,-4.4033,-4.4045,0,0,0,0,0,-4.3799,-4.386,-4.3837,-4.3842,-4.3857,-4.3885,-4.3886,-4.3853,-4.3815,-4.3843,-4.3827,-4.3787,-4.3847,-4.3812,-4.3818,-4.3861,-4.3923,-4.393,-4.3937,-4.4013,-4.403,-4.4045,0,0,0,0,0,0,-4.3881,-4.3858,-4.3831,-4.389,-4.389,-4.3871,-4.3905,-4.3873,-4.3884,-4.3875,-4.3834,-4.3832,-4.3884,-4.3877,-4.3838,-4.3932,-4.3878,-4.3887,-4.3934,-4.395,-4.3963,-4.3962,-4.3768,0,0,0,0,0,-4.3906,-4.393,-4.3909,-4.3962,-4.3963,-4.3935,-4.3946,-4.392,-4.3919,-4.3918,-4.3906,-4.3906,-4.3924,-4.3938,-4.3954,-4.4019,-4.4015,-4.4052,-4.4065,-4.4076,-4.4083,-4.4115,-4.4131,-4.3964,-4.3964,-4.3964,0,0,-4.3958,-4.3948,-4.3965,-4.3978,-4.3975,-4.4001,-4.3935,-4.3965,-4.3983,-4.3923,-4.3964,-4.3956,-4.3953,-4.4009,-4.4033,-4.4005,-4.4128,-4.4085,-4.4094,-4.4095,-4.4124,-4.414,-4.4154,-4.3969,-4.3968,-4.3968,0,0,-4.4064,-4.406,-4.4103,-4.4101,-4.4098,-4.4079,-4.409,-4.4076,-4.4068,-4.4109,-4.4064,-4.4086,-4.4119,-4.4119,-4.4123,-4.4231,-4.4194,-4.4238,-4.4304,-4.4336,-4.4349,-4.4361,-4.4397,-4.4411,-4.4245,-4.4246,-4.4246,0,-4.4128,-4.4164,-4.4129,-4.4162,-4.4168,-4.4115,-4.4158,-4.4159,-4.4161,-4.4167,-4.4136,-4.4177,-4.4172,-4.4225,-4.4252,-4.4258,-4.4268,-4.4237,-4.4351,-4.4362,-4.4372,-4.4405,-4.442,-4.4251,-4.425,-4.425,-4.4249,0,-4.4242,-4.4268,-4.4304,-4.4307,-4.4318,-4.4356,-4.4326,-4.4342,-4.4317,-4.4301,-4.4343,-4.4336,-4.4348,-4.436,-4.4336,-4.4411,-4.4393,-4.4358,-4.4302,-4.4393,-4.4424,-4.4437,-4.4258,-4.4256,-4.4255,-4.4253,0,0,-4.4397,-4.4381,-4.4394,-4.4394,-4.4387,-4.4407,-4.4443,-4.4455,-4.4468,-4.4473,-4.4501,-4.4531,-4.4498,-4.4503,-4.4478,-4.4508,-4.4591,-4.4468,-4.4467,-4.4488,-4.4671,-4.4695,-4.4711,-4.4568,-4.4571,-4.4572,-4.467,0,-4.4497,-4.4556,-4.4526,-4.4589,-4.4612,-4.4563,-4.4594,-4.4593,-4.458,-4.4598,-4.4584,-4.4605,-4.456,-4.4563,-4.459,-4.4575,-4.4626,-4.4568,-4.4592,-4.4593,-4.4591,-4.4728,-4.4754,-4.4846,-4.4682,-4.4684,-4.4686,0,-4.4621,-4.4629,-4.4694,-4.4682,-4.4691,-4.4719,-4.4728,-4.4746,-4.4745,-4.4733,-4.474,-4.4708,-4.4743,-4.469,-4.4736,-4.4697,-4.4706,-4.4701,-4.4704,-4.4702,-4.4643,-4.4727,-4.4875,-4.4888,-4.4705,-4.4704,-4.4702,0,-4.4723,-4.4752,-4.4794,-4.4796,-4.4784,-4.4805,-4.4801,-4.4797,-4.4806,-4.4815,-4.482,-4.4833,-4.4839,-4.485,-4.4823,-4.4788,-4.4872,-4.4818,-4.4862,-4.4863,-4.4879,-4.4878,-4.5028,-4.4891,-4.4891,-4.489,-4.489,0,-4.4836,-4.4877,-4.484,-4.4865,-4.491,-4.4876,-4.4921,-4.4912,-4.4909,-4.4932,-4.4892,-4.4914,-4.4879,-4.4898,-4.4878,-4.4918,-4.4922,-4.4913,-4.4906,-4.4915,-4.4915,-4.4917,-4.4909,-4.4894,-4.4893,-4.4893,-4.4892,0,-4.4957,-4.4934,-4.4976,-4.4962,-4.4959,-4.4993,-4.498,-4.5003,-4.4988,-4.5018,-4.5023,-4.4999,-4.5019,-4.4995,-4.5013,-4.5,-4.5053,-4.5039,-4.5054,-4.5048,-4.5093,-4.5088,-4.5246,-4.5265,-4.5119,-4.512,-4.5122,0,-4.5029,-4.5059,-4.5048,-4.506,-4.5059,-4.508,-4.5089,-4.5058,-4.5069,-4.507,-4.5093,-4.511,-4.5121,-4.5156,-4.5141,-4.5155,-4.5138,-4.5193,-4.514,-4.5147,-4.5136,-4.5133,-4.5135,-4.5203,-4.5204,-4.5206,-4.5207,0,-4.5158,-4.5145,-4.516,-4.5171,-4.5183,-4.519,-4.5194,-4.5207,-4.5175,-4.519,-4.5209,-4.5219,-4.5238,-4.5254,-4.5264,-4.526,-4.5228,-4.5225,-4.5235,-4.5242,-4.5248,-4.5242,-4.508,-4.522,-4.5219,-4.5218,-4.5217,-4.5217,-4.5255,-4.5279,-4.5274,-4.5292,-4.5292,-4.5297,-4.5318,-4.5305,-4.5321,-4.5333,-4.5315,-4.534,-4.5338,-4.5347,-4.5348,-4.5366,-4.5343,-4.5359,-4.5362,-4.5366,-4.5371,-4.5248,-4.5369,-4.5368,-4.5368,-4.5368,-4.5367,0,-4.5379,-4.5374,-4.5391,-4.5398,-4.5412,-4.5382,-4.5385,-4.5398,-4.5421,-4.5421,-4.5434,-4.5457,-4.5473,-4.546,-4.5473,-4.5491,-4.5477,-4.5496,-4.5492,-4.5491,-4.5393,-4.5381,-4.5507,-4.5507,-4.5507,-4.5507,-4.5507,-4.5507,-4.5446,-4.5484,-4.5471,-4.5509,-4.5504,-4.5528,-4.5532,-4.5536,-4.5536,-4.5564,-4.5577,-4.5568,-4.5563,-4.5576,-4.559,-4.5586,-4.5591,-4.5615,-4.5605,-4.5513,-4.5499,-4.5485,-4.5474,-4.5617,-4.5617,-4.5702,-4.5702,-4.5703]},{"header":{"parameterUnit":"m.s-1","parameterCategory":1,"la1":30.2991,"la2":30.254,"lo1":-89.0895,"lo2":-89.0444,"dy":0.0017,"dx":0.0017,"nx":28,"ny":28,"refTime":"2024-04-15T09:00:00:Z","depth":0,"parameterNumber":3,"parameterNumberName":"V-component_of_WINDS"},"data":[0,0,0,0,0,0,0,0,0,0,0,0,0,0,0,0,0,0,0,0,0,0,0,0,0,0,0,0,0,0,0,0,0,0,0,0,0,0,0,0,0,0,0,0,0,0,0,0,0,0,0,0,0,0,0,0,0,0,4.0105,4.0105,0,4.0162,4.0163,4.0164,4.0144,4.0143,4.0141,4.014,4.0198,4.0201,4.0204,0,0,0,0,0,0,0,0,0,0,0,0,0,3.9978,3.998,4.0105,4.0105,4.0106,4.0162,4.0163,4.0164,4.0144,4.0142,4.0141,4.014,4.0197,4.0201,4.0204,0,0,0,0,0,0,0,0,0,0,0,0,0,4.0034,3.9981,4.0105,4.0103,4.0104,4.0162,4.0163,4.0164,4.0144,4.0142,4.0141,4.0139,4.0196,4.02,4.0204,4.0268,0,0,4.0217,4.0219,0,0,0,0,0,0,0,0,4.0031,4.0038,4.0103,4.0103,4.0104,4.0144,4.0139,4.0199,4.0145,4.0129,4.014,4.0138,4.0182,4.0187,4.0202,4.027,4.0273,4.0217,4.022,4.0221,4.0223,0,0,0,0,0,0,0,4.0027,4.0036,4.0127,4.0104,4.0104,4.0099,4.0105,4.0151,4.0165,4.013,4.0129,4.0136,4.0182,4.0198,4.0203,4.0274,4.0217,4.0221,4.0223,4.0225,4.0398,4.04,0,0,0,0,0,0,4.0022,4.0033,4.0126,4.0129,4.0062,4.0103,4.011,4.0133,4.0165,4.0168,4.0137,4.0135,4.0192,4.0198,4.0205,4.0282,4.0221,4.0225,4.0228,4.0396,4.0398,4.0401,0,0,0,0,0,0,4.002,4.0031,4.0123,4.0081,4.0092,4.0108,4.0134,4.0135,4.0151,4.017,4.0173,4.0151,4.0191,4.0199,4.0252,4.0284,4.0227,4.0231,4.0393,4.0397,4.04,4.0436,0,0,0,0,0,0,4.0016,4.003,4.0054,4.0081,4.0094,4.017,4.0136,4.0138,4.0159,4.0156,4.0184,4.0187,4.019,4.0246,4.0257,4.0288,4.0234,4.0391,4.0395,4.0399,4.0433,4.0441,4.0447,0,0,0,0,0,4.0012,4.0062,4.0056,4.0067,4.0125,4.0172,4.0179,4.0182,4.0161,4.0186,4.0198,4.0186,4.0279,4.0252,4.0263,4.0297,4.0389,4.0394,4.0398,4.0429,4.0439,4.0447,0,0,0,0,0,0,4.0038,4.0066,4.0059,4.0119,4.0144,4.0169,4.02,4.0192,4.0222,4.0218,4.022,4.0226,4.0282,4.0294,4.0264,4.036,4.0331,4.0338,4.035,4.036,4.0367,4.0363,4.0237,0,0,0,0,0,4.0051,4.0087,4.0109,4.016,4.0173,4.0184,4.0205,4.0205,4.023,4.024,4.0256,4.028,4.0315,4.0338,4.0371,4.0434,4.044,4.0463,4.047,4.0476,4.0483,4.0518,4.0529,4.0417,4.0417,4.0417,0,0,4.0078,4.0097,4.012,4.0166,4.0185,4.0222,4.0193,4.0233,4.0261,4.0246,4.0297,4.031,4.0337,4.0396,4.0423,4.0409,4.0515,4.0482,4.0487,4.049,4.0524,4.0535,4.0544,4.042,4.0419,4.0419,0,0,4.0146,4.0164,4.0209,4.0229,4.0258,4.0265,4.0276,4.0303,4.0311,4.0362,4.0352,4.0385,4.0444,4.0465,4.0483,4.056,4.055,4.057,4.0609,4.0644,4.0653,4.0661,4.0689,4.0699,4.0576,4.0577,4.0577,0,4.0176,4.0232,4.0234,4.0275,4.0296,4.0284,4.033,4.0349,4.0387,4.0402,4.0385,4.046,4.0478,4.0542,4.0561,4.0576,4.0589,4.0567,4.0652,4.0659,4.0667,4.0694,4.0705,4.0579,4.0579,4.0578,4.0578,0,4.0268,4.0307,4.034,4.0378,4.0402,4.0446,4.0454,4.0479,4.0476,4.0486,4.0539,4.056,4.0597,4.0612,4.061,4.0676,4.0667,4.0651,4.0621,4.068,4.0706,4.0716,4.0582,4.0581,4.0581,4.058,0,0,4.0355,4.0393,4.0406,4.0423,4.0454,4.0484,4.0528,4.0565,4.0586,4.0613,4.0649,4.07,4.0686,4.0707,4.0707,4.0737,4.0798,4.0718,4.0718,4.0733,4.0874,4.0886,4.0898,4.0791,4.0793,4.0795,4.0872,0,4.0427,4.0504,4.0506,4.0576,4.0613,4.0602,4.064,4.0663,4.0673,4.0705,4.0715,4.0752,4.073,4.0743,4.0772,4.0784,4.0827,4.0779,4.0826,4.0828,4.0821,4.0912,4.0925,4.0997,4.0882,4.0883,4.0884,0,4.0522,4.0552,4.0626,4.0652,4.0668,4.0702,4.0736,4.0767,4.0793,4.0798,4.0822,4.0818,4.0862,4.083,4.0892,4.0859,4.0879,4.0888,4.0891,4.0896,4.0861,4.0921,4.1019,4.1031,4.09,4.0899,4.0898,0,4.058,4.0638,4.0691,4.0706,4.0738,4.0762,4.0776,4.0801,4.0823,4.0853,4.0868,4.0902,4.0921,4.0948,4.0954,4.093,4.1016,4.0984,4.1022,4.1022,4.1041,4.104,4.1146,4.1052,4.1052,4.1052,4.1051,0,4.0661,4.0706,4.0717,4.0749,4.0801,4.0803,4.0854,4.0866,4.0888,4.0923,4.0914,4.0947,4.0952,4.0985,4.099,4.1041,4.1049,4.1055,4.1056,4.1056,4.1056,4.107,4.1066,4.1054,4.1054,4.1053,4.1053,0,4.0735,4.0743,4.08,4.0825,4.0833,4.087,4.0892,4.0923,4.0931,4.0975,4.0986,4.1,4.1039,4.1047,4.1093,4.1096,4.1157,4.1152,4.1149,4.1149,4.1187,4.1183,4.1306,4.1323,4.1217,4.1217,4.1218,0,4.0786,4.0822,4.0851,4.0874,4.089,4.0926,4.0949,4.0953,4.0977,4.101,4.1037,4.1075,4.1107,4.117,4.1184,4.122,4.1217,4.1257,4.1222,4.1222,4.1219,4.1217,4.1222,4.1264,4.1265,4.1266,4.1267,0,4.0878,4.0881,4.0914,4.0949,4.0977,4.1005,4.1031,4.105,4.1057,4.1085,4.1125,4.115,4.1197,4.1236,4.1272,4.1286,4.1279,4.1278,4.1289,4.1291,4.1288,4.1291,4.1169,4.1275,4.1275,4.1274,4.1274,4.1273,4.0944,4.0975,4.1001,4.1038,4.1059,4.1084,4.1114,4.1127,4.1161,4.12,4.12,4.1244,4.127,4.1317,4.1334,4.1369,4.1356,4.1372,4.1376,4.138,4.1384,4.1281,4.1375,4.1375,4.1375,4.1375,4.1375,0,4.1036,4.1052,4.1087,4.1124,4.1154,4.1143,4.1172,4.1198,4.1237,4.1262,4.1293,4.134,4.1377,4.1394,4.1431,4.1456,4.1454,4.1466,4.1465,4.1469,4.1393,4.138,4.1468,4.1468,4.1467,4.1467,4.1467,4.1467,4.1088,4.114,4.1146,4.1209,4.1224,4.1268,4.1286,4.1309,4.1329,4.1381,4.1413,4.1423,4.1445,4.1484,4.1518,4.1522,4.1537,4.1551,4.1554,4.1483,4.1474,4.1465,4.1453,4.1554,4.1554,4.1627,4.1627,4.1628]}]]